User: anonymous
Location: Caltech
(34.1382°N, 118.1253°W)
Time: 20:57:25
(UTC-07:00)
Language:

Cosmos 2237 Rocket - Orbit

View from above orbital plane
View from above orbital plane
View from above satellite
View from above satellite

Ground track
Ground track

The orbit data is extracted from the following two-line orbital elements,

1 22566U 93016B   14114.10546308  .00000174  00000-0  11474-3 0   407
2 22566 071.0087 320.8159 0008252 079.7219 280.4834 14.14839475 88591
Epoch (UTC): 24 April 2014 02:31:52
Eccentricity: 0.0008252
inclination: 71.0087°
perigee height: 837 km
apogee height: 849 km
right ascension of ascending node: 320.8159°
argument of perigee: 79.7219°
revolutions per day: 14.14839475
mean anomaly at epoch: 280.4834°
orbit number at epoch: 8859

The dashed part of the orbit path shows where the satellite is in the earth's shadow,  

DLR